Killeen/Ft Hood, TX

12:46 PM CDT on March 29, 2017 (GMT -0500)
Hood Army Air Field

Weather History for KHLR - February, 2014

Change the Weather History Date:

Sunday, February 9, 2014

  Actual Average Record
Temperature  
Mean Temperature 55 °F -  
Max Temperature 73 °F 60 °F 87 °F (1999)
Min Temperature 37 °F 44 °F 21 °F (2011)
Degree Days  
Heating Degree Days 10    
Growing Degree Days 5 (Base 50)    
Moisture  
Dew Point 41 °F    
Average Humidity 70    
Maximum Humidity 93    
Minimum Humidity 38    
Precipitation  
Precipitation 0.00 in - - ()
Sea Level Pressure  
Sea Level Pressure 30.10 in    
Wind  
Wind Speed 4 mph (ENE)    
Max Wind Speed 14 mph    
Max Gust Speed 18 mph    
Visibility 8 miles    
Events      
Averages and records for this station are not official NWS values.
T = Trace of Precipitation, MM = Missing Value Source: NWS Daily Summary

Daily Weather History Graph

Daily Weather History Graph

Search for Another Location

Airport or City:

Trip Planner

Search our weather history database for the weather conditions in past years. The results will help you decide how hot, cold, wet, or windy it might be!

Date:

Astronomy

Feb. 09, 2014 Rise Set
Actual Time 7:17 AM CST 6:13 PM CST
Civil Twilight 6:52 AM CST 6:38 PM CST
Nautical Twilight 6:23 AM CST 7:06 PM CST
Astronomical Twilight 5:55 AM CST 7:35 PM CST
Moon 2:00 PM CST (2/9) 3:16 AM CST (2/9)
Length of Visible Light 11h 46m
Length of Day
10h 56m
Waxing Gibbous, 77% of the Moon is Illuminated
Feb 9
Waxing Gibbous
Feb 14
Full
Feb 22
Last Quarter
Mar 1
New
Mar 8
First Quarter

Hourly Weather History & Observations

Time (CST) Temp. Windchill Dew Point Humidity Pressure Visibility Wind Dir Wind Speed Gust Speed Precip Events Conditions
12:56 AM 43.0 °F 40.3 °F 39.0 °F 86% 30.16 in 10.0 mi SE 4.6 mph - N/A   Clear
1:56 AM 42.1 °F - 39.0 °F 89% 30.15 in 8.0 mi Calm Calm - N/A   Clear
2:50 AM 39.2 °F - 37.4 °F 93% 30.04 in 1.8 mi Calm Calm - N/A   Clear
2:56 AM 39.0 °F - 37.0 °F 93% 30.14 in 1.0 mi Calm Calm - N/A   Clear
3:02 AM 39.2 °F 37.0 °F 37.4 °F 93% 30.04 in 3.0 mi ESE 3.5 mph - N/A   Clear
3:56 AM 39.0 °F - 37.0 °F 93% 30.13 in 4.0 mi Calm Calm - N/A   Clear
4:56 AM 39.0 °F - 36.0 °F 89% 30.12 in 6.0 mi Calm Calm - N/A   Clear
5:56 AM 37.0 °F - 35.1 °F 93% 30.13 in 6.0 mi Calm Calm - N/A   Clear
6:56 AM 37.0 °F - 34.0 °F 89% 30.15 in 9.0 mi Calm Calm - N/A   Clear
7:56 AM 37.9 °F 35.5 °F 36.0 °F 93% 30.14 in - SE 3.5 mph - N/A   Unknown
8:56 AM 45.0 °F - 39.0 °F 80% 30.15 in 10.0 mi Calm Calm - N/A   Clear
9:56 AM 53.1 °F - 41.0 °F 64% 30.14 in 10.0 mi SSE 6.9 mph - N/A   Clear
10:56 AM 62.1 °F - 42.1 °F 48% 30.14 in 10.0 mi SSE 6.9 mph - N/A   Clear
11:56 AM 68.0 °F - 42.1 °F 39% 30.13 in 10.0 mi SE 4.6 mph - N/A   Clear
12:56 PM 71.1 °F - 44.1 °F 38% 30.09 in 10.0 mi ESE 8.1 mph - N/A   Clear
1:56 PM 72.0 °F - 46.9 °F 41% 30.04 in 10.0 mi ESE 8.1 mph - N/A   Clear
2:56 PM 71.1 °F - 48.0 °F 44% 30.02 in 10.0 mi East 12.7 mph - N/A   Clear
3:56 PM 73.9 °F - 48.9 °F 41% 30.01 in 10.0 mi East 10.4 mph - N/A   Clear
4:56 PM 73.0 °F - 51.1 °F 46% 30.02 in 10.0 mi East 5.8 mph - N/A   Clear
5:56 PM 70.0 °F - 51.1 °F 51% 30.05 in 10.0 mi ENE 6.9 mph - N/A   Clear
6:56 PM 61.0 °F - 46.9 °F 60% 30.09 in 10.0 mi NNE 8.1 mph - N/A   Clear
7:56 PM 54.0 °F - 43.0 °F 66% 30.12 in 10.0 mi North 10.4 mph - N/A   Mostly Cloudy
8:16 PM 53.6 °F - 42.8 °F 67% 30.03 in 10.0 mi North 6.9 mph - N/A   Overcast
8:56 PM 51.1 °F - 42.1 °F 71% 30.14 in 10.0 mi North 13.8 mph - N/A   Overcast
9:22 PM 50.0 °F - 41.0 °F 71% 30.05 in 10.0 mi North 10.4 mph 17.3 mph N/A   Overcast
9:31 PM 48.2 °F - 41.0 °F 76% 30.05 in 10.0 mi North 10.4 mph - N/A   Overcast
9:56 PM 48.9 °F - 41.0 °F 74% 30.16 in 9.0 mi North 8.1 mph 18.4 mph N/A   Overcast
10:56 PM 48.0 °F - 39.9 °F 74% 30.16 in 9.0 mi North 9.2 mph 16.1 mph N/A   Overcast
11:56 PM 46.9 °F - 39.9 °F 77% 30.16 in 8.0 mi North 9.2 mph 17.3 mph N/A   Overcast